Wind_Speed
21 26 31 52 62 60 57 51 47 49 47 44 42 38 37 50 73 91 89 85 79 72 70 66 64 61 53 48 52 48 55 59 53 52 50 48 43 40 36 33 30 28 30 32 32 34 32 27 27 29 25 28 27 27
21 27 37 48 50 50 47 46 46 46 41 41 40 39 36 46 69 87 86 82 78 72 66 63 64 57 48 45 45 44 50 51 50 49 49 42 39 39 34 36 32 31 31 33 34 33 30 26 24 24 23 24 24 23
23 29 33 38 41 43 45 46 42 45 40 36 37 39 36 49 70 82 84 80 75 73 63 61 53 52 48 46 49 49 47 47 46 46 44 43 39 37 33 36 35 32 32 37 36 32 29 28 25 23 23 23 23 24
25 28 34 37 40 43 43 42 42 40 34 33 36 36 35 61 71 81 83 79 75 68 63 59 36 41 46 46 52 52 49 48 44 44 42 40 39 34 35 32 36 37 36 38 36 36 32 33 29 27 26 27 28 29
22 27 32 33 34 36 35 36 35 35 36 36 37 33 51 77 65 81 79 76 75 69 57 50 41 34 37 46 48 48 45 42 43 45 44 44 39 38 36 37 31 40 30 37 33 33 37 35 34 31 31 32 33 34
18 20 23 24 24 27 28 28 30 34 37 36 36 59 61 63 76 78 80 77 67 57 50 43 44 32 35 38 48 45 45 43 41 44 41 44 38 42 41 37 34 33 33 34 35 37 39 39 38 38 37 37 37 38
13 14 16 18 24 28 32 33 30 29 38 58 57 53 50 62 76 80 77 70 69 51 24 49 38 33 34 38 42 44 42 43 44 40 37 38 44 41 35 36 38 39 38 37 40 41 41 40 41 41 41 42 41 41
26 31 37 41 41 46 41 43 44 48 56 60 58 58 58 69 79 78 71 63 62 56 46 43 37 35 36 34 33 39 42 38 37 39 47 36 30 29 39 38 43 44 42 42 40 40 40 42 43 44 44 44 44 45
28 31 37 40 39 39 45 45 46 46 45 40 49 51 65 75 74 63 48 42 45 49 43 40 29 29 34 25 23 35 34 36 34 28 34 33 41 40 37 40 40 44 41 37 38 38 42 45 46 43 41 43 45 46
33 32 30 35 37 37 35 34 36 39 33 37 46 59 68 70 66 52 45 43 40 38 42 23 28 29 33 29 31 31 32 34 38 34 32 31 28 30 25 27 32 36 37 39 44 46 45 40 42 44 44 45 47 48
22 35 35 32 31 33 33 33 34 33 35 44 52 65 70 71 68 51 44 37 40 49 32 18 22 24 31 31 26 26 23 27 29 31 35 35 32 32 36 37 36 37 38 36 37 42 50 54 50 47 48 47 47 48
29 28 27 26 27 27 32 42 50 54 44 54 63 72 60 55 45 36 35 30 44 36 20 21 27 23 18 9 10 12 14 18 26 30 33 37 34 32 33 36 37 38 38 38 39 42 46 45 40 46 43 45 48 50
51 55 57 58 55 56 65 59 49 46 59 64 65 66 52 46 32 24 20 27 36 23 28 35 27 13 9 12 13 16 20 22 25 28 30 28 27 29 31 32 34 37 39 39 38 36 31 43 46 48 49 48 45 45
59 61 53 57 61 52 62 61 57 56 67 65 66 51 33 23 17 15 17 21 17 19 19 21 22 20 16 17 19 20 21 24 23 22 16 17 22 24 27 29 31 32 34 34 34 37 41 47 48 45 40 42 45 49
48 52 57 63 50 46 55 56 57 65 63 50 53 41 37 18 12 17 17 19 16 13 14 15 15 15 16 16 14 18 25 28 30 24 22 22 24 26 28 30 29 30 32 37 43 45 40 34 34 38 43 47 50 48
36 38 41 39 43 45 44 51 49 54 51 17 38 18 29 21 12 15 20 19 15 15 11 9 11 13 14 17 18 19 17 19 26 30 31 28 29 30 31 33 31 35 36 31 27 29 33 37 41 44 46 46 46 47
23 25 26 28 29 25 28 37 42 33 22 34 24 27 26 14 4 10 14 10 10 11 9 10 11 14 16 16 15 17 19 21 23 25 26 26 27 26 25 23 22 24 26 28 33 37 40 43 44 45 46 47 49 52
22 24 22 17 16 20 25 24 22 20 17 24 29 24 17 16 13 13 15 15 13 13 17 20 20 22 22 20 19 19 19 21 23 23 20 18 18 20 23 26 27 30 34 38 41 42 43 45 46 47 48 51 55 59
16 18 20 19 18 18 17 19 19 18 19 21 26 27 23 21 22 22 20 22 26 27 26 26 24 22 23 23 22 22 24 23 22 23 23 25 27 29 31 33 36 39 41 43 44 45 45 47 49 52 56 59 62 65
14 23 23 20 18 16 14 14 18 20 21 20 22 23 26 25 23 23 21 20 20 20 18 22 25 24 22 22 21 21 24 24 25 28 31 33 35 38 40 41 43 44 45 46 47 48 50 53 57 60 62 63 63 64
13 13 20 31 35 30 26 23 23 24 22 21 22 21 21 23 22 22 20 18 17 18 22 24 25 27 26 27 27 28 30 32 34 35 37 38 39 41 42 43 45 46 48 49 52 56 59 61 61 61 61 62 64 66
15 16 16 15 15 16 19 24 28 30 30 27 27 30 29 28 26 24 23 25 26 26 26 26 27 29 30 31 33 34 35 36 37 38 39 40 41 43 46 47 49 51 54 57 59 60 58 58 59 60 63 66 68 71
19 19 18 19 20 20 20 20 20 23 26 27 26 26 28 28 27 27 27 28 28 29 28 29 30 31 32 34 36 37 38 38 39 40 42 44 46 48 51 53 55 57 57 56 56 56 57 60 63 66 68 71 72 73
25 27 27 28 28 27 26 27 26 27 27 27 27 27 27 28 28 28 29 31 32 33 33 33 34 35 36 37 39 40 41 42 43 45 48 50 52 54 54 54 54 54 54 56 58 61 64 67 69 71 71 71 70 69
9 14 21 26 29 31 32 33 34 34 34 33 33 33 33 33 33 33 34 35 36 37 37 38 38 39 40 41 43 44 45 47 48 50 51 51 50 49 50 51 54 56 59 62 65 66 67 67 66 64 63 63 65 67
13 12 11 11 15 22 27 29 31 32 35 38 40 39 39 39 40 40 40 40 40 40 40 41 41 42 43 44 45 46 45 45 45 44 45 46 48 51 54 56 59 60 60 60 59 59 59 60 63 66 68 70 72 73
20 20 20 19 18 17 17 21 24 26 25 26 28 30 33 36 37 37 37 37 38 38 37 37 36 35 34 33 35 36 39 42 44 46 49 51 53 54 53 53 53 54 55 57 59 62 64 66 68 69 70 72 74 77
27 26 26 25 24 23 23 23 23 24 24 25 25 25 25 25 25 26 26 27 27 28 29 31 32 34 36 38 40 42 44 46 47 47 47 47 47 48 49 51 54 56 58 60 61 62 64 67 71 75 78 79 79 78
31 30 30 29 28 27 27 28 29 30 30 30 30 30 30 30 31 31 32 32 33 34 35 36 37 38 39 40 41 41 41 41 40 41 43 45 47 50 52 53 54 54 56 60 65 70 72 72 72 72 72 72 72 71
24 24 24 24 24 25 26 26 27 28 29 30 31 32 32 33 33 33 33 34 34 34 34 34 34 34 33 33 34 35 36 38 41 43 46 47 47 46 46 50 55 59 61 60 59 60 62 64 65 66 66 65 64 62
17 17 19 19 19 20 21 22 22 23 24 24 25 26 25 25 25 25 25 25 25 26 27 27 28 29 31 33 35 38 41 43 43 42 40 40 42 48 52 52 49 47 48 49 51 54 56 57 57 56 55 54 54 54
5 7 8 9 10 11 12 13 14 15 16 17 17 18 19 19 20 21 22 23 25 27 29 31 33 35 37 39 40 40 39 37 35 36 40 44 46 41 38 38 40 42 44 45 47 49 51 51 51 50 49 49 49 49
11 12 13 14 15 16 17 17 18 19 19 20 21 22 24 25 27 28 30 31 33 34 35 36 37 36 35 33 32 30 31 34 37 39 37 31 30 31 32 34 37 39 40 42 44 46 48 48 48 47 46 45 45 45
Wind_Direction
76 79 135 154 159 167 180 186 189 193 195 202 208 208 203 196 194 198 196 197 198 200 204 205 210 212 209 207 202 209 209 213 214 218 222 226 232 236 237 243 247 244 247 247 251 257 265 274 278 281 274 262 261 262
103 114 128 147 157 170 178 182 185 189 194 200 203 205 201 194 189 195 192 195 197 200 203 207 210 209 205 205 202 207 216 221 216 218 225 226 237 235 240 250 249 245 248 250 253 258 265 275 281 281 277 269 266 266
105 130 145 154 159 168 176 180 186 189 189 196 200 202 200 191 183 192 189 193 195 200 201 206 211 211 206 206 201 206 211 217 221 225 230 232 236 238 241 259 253 241 248 249 255 260 267 272 276 277 277 277 276 275
118 132 140 148 158 167 175 181 190 187 194 196 196 195 195 181 179 188 186 190 195 199 202 204 206 213 205 204 208 208 211 213 217 221 227 232 232 242 249 254 246 251 250 248 253 259 264 266 271 273 275 277 280 283
130 133 141 149 155 162 170 179 187 192 192 188 187 198 174 167 172 185 184 190 195 198 199 195 196 196 205 210 211 212 207 214 211 213 221 228 232 238 241 245 253 249 250 250 256 259 259 261 266 270 273 276 279 283
136 147 153 158 167 175 178 182 186 185 186 185 179 160 172 170 177 179 183 189 190 195 202 193 195 195 200 207 207 212 213 222 219 217 224 229 235 237 246 252 252 246 244 253 258 261 263 264 265 269 273 277 282 287
126 146 153 153 152 154 157 153 160 177 174 157 151 160 175 169 175 178 181 185 187 175 181 188 186 187 193 203 208 206 212 219 222 226 229 237 239 236 244 252 248 248 251 250 255 260 263 268 269 272 275 278 282 286
118 123 123 123 125 134 138 140 140 150 155 160 160 167 166 169 175 178 179 186 189 188 174 172 178 187 196 199 206 203 213 216 220 226 229 236 252 270 248 250 251 242 246 253 256 262 267 269 272 275 278 280 283 285
141 140 142 143 142 142 139 142 144 147 154 162 167 172 167 170 171 168 169 177 189 193 188 194 198 205 198 194 213 201 204 212 216 222 241 239 244 253 264 256 245 231 242 252 258 255 260 268 271 268 274 278 281 286
156 158 154 159 158 153 152 151 157 163 162 160 160 161 163 161 154 143 176 168 180 175 180 173 195 203 219 213 206 206 207 210 231 231 237 247 246 246 235 239 237 239 248 257 253 252 256 262 267 271 274 279 285 288
146 167 163 162 160 166 169 170 170 165 146 144 145 153 156 160 165 156 164 175 189 194 182 176 196 204 192 195 186 199 208 214 224 233 242 245 245 249 249 252 258 260 264 267 266 266 267 269 275 278 278 281 284 285
94 124 139 152 151 145 141 135 126 112 121 140 148 152 148 137 150 166 171 185 189 195 186 184 160 157 154 176 204 223 233 239 248 250 254 258 263 261 257 260 265 266 268 274 276 273 272 276 264 265 278 280 281 283
93 103 106 106 112 120 117 105 118 137 144 145 152 158 153 144 140 143 138 177 189 199 187 170 167 186 261 277 254 256 250 258 260 261 263 269 273 266 265 265 262 264 269 272 271 272 265 256 262 270 276 280 285 288
84 88 91 96 95 105 116 108 124 141 151 149 141 139 130 136 129 134 154 172 195 210 214 229 242 256 258 260 258 250 265 268 256 262 272 275 263 259 256 260 263 265 269 269 268 255 256 269 275 277 281 284 286 289
83 87 100 98 98 112 129 135 147 153 157 153 161 159 169 174 162 171 161 166 173 184 196 201 206 225 246 260 250 249 260 259 252 249 269 279 275 268 263 264 273 272 276 268 266 263 263 273 282 283 284 287 290 292
93 95 98 108 120 121 126 137 144 144 153 147 165 173 147 169 131 154 178 170 163 166 177 207 231 241 245 246 254 257 258 258 263 262 271 279 276 275 273 273 272 266 267 268 267 276 280 281 283 286 287 289 290 289
111 101 106 96 120 133 148 161 166 166 156 157 166 145 151 160 165 161 161 176 199 207 221 236 251 265 257 247 250 254 255 258 264 271 273 272 270 271 268 265 259 266 269 269 272 277 282 286 288 288 288 288 288 289
129 138 136 143 126 130 159 177 192 206 208 193 185 197 225 237 242 245 231 225 237 242 247 272 274 259 245 246 254 254 255 271 275 270 267 267 273 275 272 272 273 274 273 275 280 284 286 287 286 285 285 286 287 287
173 168 143 140 152 173 183 186 193 203 215 222 225 231 236 245 249 248 254 250 250 255 264 264 255 245 244 246 248 253 258 259 261 258 264 274 278 278 278 277 277 278 279 281 284 285 285 285 284 285 285 286 286 288
170 182 194 193 191 203 201 200 202 206 211 216 224 233 239 239 239 239 236 243 245 248 244 241 246 251 254 252 248 251 256 256 260 266 271 274 274 274 275 278 279 280 282 285 285 285 285 285 285 285 286 288 289 290
173 183 193 209 211 220 224 219 221 215 220 226 228 229 231 232 231 235 237 247 237 241 247 251 252 253 253 252 255 258 262 266 270 271 269 270 274 277 279 281 283 284 284 284 284 283 283 283 285 286 288 289 290 292
192 194 194 198 203 206 218 228 232 235 239 243 240 234 233 234 235 240 243 237 238 247 253 257 258 259 260 261 263 264 265 265 265 268 272 276 276 278 279 281 281 280 279 279 280 282 284 286 287 289 290 291 292 293
210 209 211 211 214 215 220 221 225 230 236 242 245 246 245 247 249 249 248 250 251 253 254 254 255 257 259 261 262 262 264 267 269 271 273 274 275 276 276 277 278 279 280 282 285 287 289 290 291 292 293 294 294 295
222 224 224 222 220 222 222 225 228 230 233 237 240 242 245 246 247 248 249 250 252 253 254 255 257 259 260 261 262 264 266 267 269 271 273 275 276 276 278 280 282 285 288 290 291 291 291 292 292 293 294 295 295 296
277 248 235 234 233 234 233 231 232 233 236 240 241 242 243 244 244 245 246 248 250 251 253 255 257 258 259 261 262 264 266 268 270 272 274 277 280 283 287 288 289 289 290 291 292 293 294 295 295 296 296 296 297 297
294 285 282 269 251 242 242 243 242 242 242 243 244 243 243 244 245 246 246 247 248 250 252 254 256 258 260 262 264 266 270 273 278 281 284 285 286 287 289 290 291 292 293 294 295 296 297 297 297 297 296 296 296 296
293 282 276 273 268 264 256 246 241 242 243 243 243 243 244 245 246 248 249 251 253 254 256 259 263 267 271 276 278 280 282 283 283 284 286 287 289 290 292 294 296 296 297 297 297 297 297 298 297 297 297 296 296 295
282 276 267 264 261 257 252 248 245 243 243 243 245 246 248 249 252 253 255 258 262 266 268 270 272 273 275 277 279 281 282 284 286 287 288 289 292 294 296 297 297 297 298 298 298 299 299 299 298 298 298 297 297 297
268 265 260 259 257 254 251 248 246 243 243 244 246 247 249 250 253 256 260 263 265 267 269 271 273 275 277 279 280 282 284 286 289 291 293 295 296 297 298 300 301 302 303 302 302 301 301 301 300 300 299 299 299 299
253 252 251 250 250 248 247 247 247 247 248 249 250 252 253 255 257 260 262 264 266 267 269 271 273 275 277 280 283 286 289 291 293 295 297 299 300 301 302 302 303 304 305 306 306 306 306 305 305 304 304 304 304 304
242 242 243 244 245 247 247 247 247 248 249 250 252 253 254 256 256 256 257 259 263 266 269 272 276 279 283 286 288 291 293 294 296 298 298 300 302 304 306 307 309 310 312 314 315 316 315 313 312 311 310 310 310 310
237 242 247 247 245 245 244 245 246 246 247 248 250 251 254 256 259 262 264 267 270 273 276 279 282 285 287 290 292 294 295 297 299 301 303 305 307 310 312 315 318 319 321 322 325 327 327 325 323 321 319 318 317 316
262 261 261 261 262 261 259 258 257 258 258 259 260 262 263 265 268 270 273 274 276 278 280 282 284 286 287 289 292 294 297 300 303 305 308 311 315 320 323 326 329 331 333 334 337 338 339 337 335 331 329 327 327 326
Height
5203 5195 5195 5210 5238 5265 5286 5304 5319 5332 5345 5356 5366 5374 5383 5391 5406 5429 5455 5477 5498 5515 5530 5545 5555 5567 5582 5593 5602 5613 5615 5619 5631 5637 5643 5649 5653 5659 5663 5666 5670 5674 5676 5678 5680 5681 5684 5685 5683 5682 5682 5679 5679 5679
5225 5226 5231 5242 5258 5274 5291 5306 5319 5331 5342 5352 5361 5370 5379 5388 5404 5429 5453 5476 5496 5512 5527 5539 5551 5563 5578 5589 5599 5606 5612 5618 5626 5631 5637 5643 5647 5652 5656 5658 5664 5667 5670 5673 5675 5676 5678 5678 5677 5675 5674 5673 5673 5673
5242 5244 5251 5259 5270 5283 5296 5308 5319 5329 5340 5349 5358 5368 5378 5388 5404 5430 5454 5476 5494 5507 5523 5537 5549 5559 5571 5582 5590 5596 5603 5612 5620 5627 5631 5636 5642 5646 5649 5653 5657 5660 5663 5664 5666 5669 5671 5671 5671 5670 5669 5669 5669 5668
5255 5259 5264 5272 5280 5290 5300 5310 5320 5330 5338 5347 5356 5366 5374 5388 5407 5431 5451 5473 5490 5506 5518 5535 5547 5555 5566 5575 5583 5590 5598 5605 5612 5618 5624 5630 5634 5639 5642 5644 5646 5651 5653 5655 5658 5661 5664 5663 5663 5663 5663 5663 5662 5662
5269 5272 5277 5282 5289 5297 5305 5313 5321 5330 5337 5346 5356 5362 5373 5391 5409 5432 5456 5474 5491 5506 5519 5533 5543 5553 5562 5570 5577 5585 5592 5600 5605 5610 5615 5620 5625 5631 5633 5637 5639 5642 5645 5648 5652 5655 5654 5655 5654 5655 5655 5655 5654 5653
5276 5279 5284 5289 5294 5300 5307 5313 5320 5328 5337 5346 5353 5366 5381 5394 5413 5437 5453 5470 5492 5510 5521 5531 5542 5549 5557 5563 5571 5580 5587 5594 5600 5604 5607 5612 5618 5623 5625 5629 5633 5635 5638 5641 5643 5644 5645 5645 5646 5646 5645 5645 5644 5642
5283 5286 5289 5292 5297 5302 5307 5314 5320 5327 5335 5349 5363 5375 5387 5402 5421 5441 5460 5477 5497 5507 5520 5530 5539 5546 5553 5559 5565 5573 5581 5587 5593 5598 5602 5606 5610 5613 5618 5623 5625 5628 5630 5632 5634 5634 5635 5636 5635 5634 5635 5634 5632 5631
5292 5295 5298 5301 5306 5312 5318 5325 5332 5339 5349 5359 5370 5381 5394 5409 5427 5447 5469 5482 5495 5508 5516 5527 5536 5544 5551 5557 5563 5569 5575 5580 5586 5592 5596 5599 5601 5604 5609 5613 5613 5618 5620 5622 5623 5625 5625 5625 5625 5624 5623 5622 5621 5619
5301 5304 5309 5313 5318 5323 5329 5337 5343 5353 5362 5371 5380 5388 5400 5418 5439 5462 5481 5492 5502 5513 5520 5529 5536 5543 5549 5554 5559 5566 5571 5576 5583 5583 5587 5591 5596 5598 5604 5602 5603 5607 5611 5614 5614 5615 5614 5615 5614 5613 5612 5610 5608 5606
5304 5309 5315 5322 5327 5333 5339 5346 5353 5362 5369 5376 5386 5398 5414 5436 5455 5470 5487 5493 5502 5510 5520 5527 5535 5542 5547 5554 5557 5563 5567 5572 5575 5580 5582 5585 5589 5594 5593 5594 5598 5599 5601 5603 5603 5604 5603 5602 5601 5600 5599 5598 5597 5594
5306 5311 5319 5326 5334 5342 5348 5356 5363 5372 5380 5389 5403 5420 5435 5449 5464 5475 5486 5496 5503 5510 5517 5524 5531 5531 5540 5548 5553 5558 5562 5566 5570 5574 5575 5578 5582 5585 5586 5588 5589 5589 5590 5591 5591 5592 5592 5591 5589 5588 5586 5585 5584 5581
5316 5317 5323 5332 5341 5350 5358 5367 5379 5393 5405 5413 5425 5439 5446 5460 5473 5483 5491 5496 5503 5510 5516 5524 5529 5534 5538 5543 5549 5554 5557 5561 5562 5565 5565 5567 5573 5574 5577 5578 5579 5580 5581 5581 5581 5580 5579 5579 5579 5576 5575 5572 5569 5567
5341 5339 5343 5348 5352 5360 5370 5383 5396 5408 5417 5429 5441 5452 5460 5470 5479 5487 5490 5499 5506 5511 5518 5524 5527 5531 5536 5541 5546 5549 5550 5553 5556 5556 5556 5560 5562 5565 5567 5568 5569 5570 5570 5570 5570 5569 5569 5568 5567 5565 5562 5560 5557 5555
5371 5370 5373 5375 5380 5385 5395 5406 5418 5425 5435 5440 5453 5462 5468 5478 5484 5491 5496 5502 5507 5513 5518 5523 5526 5530 5534 5538 5540 5542 5544 5545 5547 5550 5553 5553 5554 5556 5558 5559 5559 5560 5560 5559 5559 5557 5557 5557 5555 5553 5551 5548 5545 5542
5399 5399 5401 5402 5408 5411 5417 5421 5429 5437 5446 5455 5462 5474 5477 5484 5489 5494 5499 5504 5508 5512 5518 5522 5526 5530 5532 5534 5535 5539 5541 5540 5541 5544 5545 5546 5547 5547 5548 5549 5550 5550 5550 5550 5550 5548 5546 5545 5544 5542 5539 5536 5532 5528
5421 5422 5424 5427 5429 5433 5439 5444 5449 5455 5463 5466 5474 5478 5480 5487 5491 5495 5500 5505 5510 5514 5518 5522 5524 5527 5528 5530 5532 5533 5534 5535 5536 5536 5537 5538 5538 5539 5539 5539 5540 5540 5540 5540 5539 5538 5537 5535 5532 5529 5525 5522 5518 5514
5437 5439 5438 5442 5447 5449 5451 5455 5458 5462 5466 5470 5473 5478 5484 5489 5493 5497 5500 5505 5509 5511 5514 5517 5520 5522 5524 5525 5527 5528 5529 5530 5530 5530 5530 5530 5531 5531 5531 5531 5531 5531 5531 5531 5530 5528 5526 5522 5519 5515 5512 5509 5504 5500
5447 5449 5452 5454 5456 5461 5465 5465 5467 5469 5473 5477 5478 5482 5486 5490 5494 5497 5500 5503 5505 5507 5511 5513 5515 5516 5519 5520 5522 5523 5523 5523 5523 5523 5523 5523 5524 5524 5524 5524 5524 5523 5522 5520 5518 5516 5512 5509 5506 5502 5498 5494 5489 5484
5451 5454 5457 5458 5461 5465 5466 5468 5470 5472 5474 5477 5480 5483 5486 5488 5490 5493 5496 5498 5501 5504 5506 5508 5509 5511 5513 5514 5514 5515 5516 5516 5516 5517 5516 5516 5515 5515 5515 5514 5514 5512 5510 5508 5505 5502 5499 5495 5492 5488 5483 5478 5472 5467
5451 5453 5456 5458 5461 5463 5466 5467 5469 5471 5472 5475 5476 5479 5482 5484 5487 5490 5492 5493 5494 5496 5498 5500 5502 5503 5504 5505 5506 5507 5508 5508 5509 5508 5507 5506 5506 5505 5505 5503 5501 5499 5497 5494 5491 5488 5484 5480 5476 5471 5465 5460 5454 5448
5450 5452 5453 5457 5459 5462 5463 5466 5468 5470 5472 5474 5475 5477 5478 5480 5482 5484 5485 5487 5488 5490 5492 5493 5495 5496 5497 5497 5498 5498 5499 5499 5499 5498 5497 5496 5495 5494 5492 5490 5488 5485 5483 5479 5476 5472 5468 5463 5458 5452 5447 5442 5436 5429
5448 5450 5452 5454 5455 5457 5458 5461 5462 5464 5466 5468 5470 5472 5474 5476 5478 5479 5480 5482 5483 5484 5486 5486 5487 5487 5488 5488 5488 5488 5488 5488 5488 5487 5486 5485 5483 5482 5479 5477 5474 5471 5467 5463 5459 5454 5449 5444 5439 5435 5430 5424 5417 5410
5444 5446 5447 5449 5451 5452 5455 5456 5458 5459 5461 5462 5464 5465 5466 5468 5470 5472 5472 5474 5475 5476 5477 5478 5479 5479 5479 5479 5479 5478 5478 5477 5477 5476 5474 5472 5470 5468 5465 5462 5458 5455 5451 5446 5442 5437 5433 5428 5422 5416 5410 5403 5395 5388
5439 5440 5441 5442 5444 5446 5448 5449 5451 5453 5454 5456 5457 5459 5461 5462 5463 5464 5465 5466 5467 5468 5469 5469 5469 5469 5470 5469 5469 5468 5467 5466 5464 5463 5461 5459 5456 5453 5449 5446 5442 5438 5434 5429 5425 5420 5415 5408 5402 5396 5388 5381 5373 5366
5433 5433 5435 5435 5436 5438 5439 5440 5442 5444 5446 5447 5449 5450 5452 5453 5454 5455 5456 5456 5457 5458 5458 5458 5458 5458 5458 5458 5457 5456 5454 5453 5450 5448 5446 5443 5440 5437 5433 5430 5426 5422 5417 5412 5406 5400 5394 5387 5381 5374 5367 5361 5354 5347
5427 5427 5428 5427 5428 5429 5430 5431 5432 5434 5435 5437 5439 5440 5441 5442 5444 5444 5445 5446 5446 5446 5446 5446 5446 5446 5445 5444 5443 5441 5440 5438 5436 5434 5431 5428 5426 5422 5419 5415 5410 5405 5399 5393 5387 5381 5375 5369 5362 5355 5348 5340 5333 5326
5420 5421 5421 5420 5421 5421 5422 5423 5424 5425 5426 5427 5428 5429 5430 5432 5433 5434 5434 5434 5435 5435 5435 5435 5434 5434 5433 5432 5431 5429 5428 5426 5424 5421 5418 5414 5411 5406 5402 5397 5392 5387 5382 5376 5370 5363 5357 5349 5342 5334 5326 5318 5310 5303
5412 5412 5412 5413 5413 5413 5414 5415 5416 5417 5419 5420 5421 5421 5422 5423 5424 5424 5424 5425 5425 5426 5426 5425 5425 5424 5423 5421 5420 5418 5416 5413 5411 5407 5404 5400 5397 5392 5388 5383 5378 5372 5366 5359 5352 5345 5337 5329 5321 5312 5302 5293 5284 5274
5401 5401 5402 5402 5403 5404 5405 5406 5407 5408 5410 5411 5412 5413 5414 5414 5415 5415 5416 5416 5415 5415 5415 5414 5414 5413 5411 5409 5407 5405 5403 5400 5398 5394 5391 5387 5383 5378 5373 5367 5361 5355 5348 5341 5333 5325 5316 5307 5298 5288 5279 5270 5260 5251
5389 5390 5391 5391 5393 5393 5395 5396 5397 5398 5399 5401 5402 5402 5404 5404 5405 5405 5405 5405 5405 5404 5404 5403 5402 5401 5400 5398 5396 5394 5392 5389 5385 5382 5378 5373 5369 5364 5358 5352 5346 5340 5332 5324 5315 5305 5296 5286 5276 5266 5256 5247 5239 5230
5382 5383 5383 5384 5385 5385 5386 5387 5388 5389 5390 5391 5392 5393 5393 5394 5394 5395 5395 5394 5394 5394 5393 5393 5392 5391 5390 5388 5386 5383 5380 5377 5373 5370 5365 5361 5356 5351 5345 5338 5331 5325 5318 5310 5301 5291 5280 5269 5259 5248 5239 5230 5221 5213
5379 5378 5379 5379 5380 5380 5381 5381 5382 5382 5383 5384 5384 5385 5386 5386 5386 5387 5387 5386 5386 5385 5384 5383 5382 5380 5378 5376 5374 5370 5367 5364 5361 5357 5353 5349 5344 5338 5333 5327 5321 5314 5306 5298 5289 5278 5267 5256 5245 5235 5225 5216 5207 5199
5376 5376 5376 5375 5375 5375 5376 5376 5376 5377 5377 5377 5378 5378 5378 5378 5378 5378 5377 5376 5376 5375 5373 5372 5370 5369 5367 5364 5362 5360 5357 5354 5350 5346 5342 5338 5333 5329 5324 5318 5312 5304 5296 5288 5279 5269 5258 5247 5236 5225 5215 5205 5196 5187